Weather History for KRND - May, 2014

Change the Weather History Date:

Saturday, May 3, 2014

  Actual Average Record
Temperature  
Mean Temperature 74 °F -  
Max Temperature 91 °F 82 °F 91 °F (2006)
Min Temperature 59 °F 63 °F 45 °F (2013)
Cooling Degree Days 10    
Growing Degree Days 24 (Base 50)    
Moisture  
Dew Point 34 °F    
Average Humidity 25    
Maximum Humidity 43    
Minimum Humidity 10    
Precipitation  
Precipitation 0.00 in - - ()
Sea Level Pressure  
Sea Level Pressure 30.04 in    
Wind  
Wind Speed 8 mph (SSW)    
Max Wind Speed 16 mph    
Max Gust Speed 22 mph    
Visibility 10 miles    
Events      
Averages and records for this station are not official NWS values.
T = Trace of Precipitation, MM = Missing Value Source: NWS Daily Summary

Daily Weather History Graph

Daily Weather History Graph

Search for Another Location

Airport or City:

Trip Planner

Search our weather history database for the weather conditions in past years. The results will help you decide how hot, cold, wet, or windy it might be!

Date:

Astronomy

May. 03, 2014 Rise Set
Actual Time 6:49 AM CDT 8:11 PM CDT
Civil Twilight 6:23 AM CDT 8:36 PM CDT
Nautical Twilight 5:53 AM CDT 9:06 PM CDT
Astronomical Twilight 5:22 AM CDT 9:38 PM CDT
Moon 10:23 AM CDT (5/3) No Moon Set
Length of Visible Light 14h 12m
Length of Day
13h 21m
Waxing Crescent, 20% of the Moon is Illuminated
May 3
Waxing Crescent
May 6
First Quarter
May 14
Full
May 21
Last Quarter
May 28
New

Hourly Weather History & Observations

Time (CDT) Temp. Dew Point Humidity Pressure Visibility Wind Dir Wind Speed Gust Speed Precip Events Conditions
12:58 AM 63.3 °F 36.3 °F 37% 30.04 in 10.0 mi SW 6.9 mph - N/A   Clear
1:58 AM 63.0 °F 36.5 °F 37% 30.04 in 10.0 mi SW 5.8 mph - N/A   Clear
2:58 AM 62.4 °F 36.1 °F 38% 30.01 in 10.0 mi SW 6.9 mph - N/A   Clear
3:58 AM 61.9 °F 36.3 °F 39% 30.03 in 10.0 mi SW 6.9 mph - N/A   Clear
4:58 AM 60.6 °F 36.7 °F 41% 30.03 in 10.0 mi WSW 6.9 mph - N/A   Clear
5:58 AM 60.4 °F 36.0 °F 40% 30.03 in 10.0 mi SW 6.9 mph - N/A   Clear
6:58 AM 59.0 °F 36.3 °F 43% 30.05 in 10.0 mi SW 6.9 mph - N/A   Clear
7:58 AM 63.7 °F 36.1 °F 36% 30.06 in 10.0 mi SW 6.9 mph - N/A   Clear
8:58 AM 68.4 °F 37.0 °F 32% 30.08 in 10.0 mi SW 15.0 mph - N/A   Clear
9:58 AM 73.0 °F 37.0 °F 27% 30.09 in 10.0 mi SW 16.1 mph 21.9 mph N/A   Clear
10:58 AM 77.2 °F 38.3 °F 25% 30.09 in 10.0 mi SW 11.5 mph - N/A   Clear
11:58 AM 80.6 °F 38.8 °F 22% 30.09 in 10.0 mi SW 10.4 mph - N/A   Partly Cloudy
12:58 PM 84.4 °F 36.5 °F 18% 30.07 in 10.0 mi WSW 11.5 mph - N/A   Scattered Clouds
1:14 PM 86.0 °F 35.6 °F 17% 30.08 in 10.0 mi SSW 11.5 mph - N/A   Scattered Clouds
1:58 PM 87.3 °F 30.6 °F 13% 30.04 in 10.0 mi WSW 11.5 mph - N/A   Mostly Cloudy
2:58 PM 89.1 °F 26.4 °F 10% 30.02 in 10.0 mi SW 10.4 mph - N/A   Partly Cloudy
3:58 PM 90.1 °F 25.2 °F 10% 30.00 in 10.0 mi Variable 2.3 mph - N/A   Clear
4:58 PM 90.3 °F 26.8 °F 10% 29.98 in 10.0 mi South 10.4 mph 17.3 mph N/A   Clear
5:58 PM 90.5 °F 25.3 °F 10% 29.98 in 10.0 mi SW 6.9 mph - N/A   Clear
6:58 PM 88.7 °F 28.8 °F 12% 29.98 in 10.0 mi SSE 9.2 mph 17.3 mph N/A   Clear
7:58 PM 82.2 °F 33.8 °F 17% 29.99 in 10.0 mi SSE 6.9 mph - N/A   Clear
8:58 PM 76.5 °F 33.3 °F 21% 30.01 in 10.0 mi SE 5.8 mph - N/A   Clear
9:58 PM 76.6 °F 32.9 °F 20% 30.03 in 10.0 mi SSE 6.9 mph - N/A   Clear
10:58 PM 74.5 °F 35.4 °F 24% 30.05 in 10.0 mi South 15.0 mph - N/A   Clear
11:58 PM 72.5 °F 30.9 °F 22% 30.06 in 10.0 mi South 12.7 mph - N/A   Clear